Вернуться в каталог

STARLINK-11531

АктивенСвязьVLEO
NORAD 62841·PAYLOAD·🇺🇸 United States

Запущен Jan 27, 2025 с Cape Canaveral Space Force Station

Loading…

Ближайшие Пролёты (ближайшие 24 часа)

TLE

СвежийSource: CelesTrak SupGP

Эпоха: Sep 15, 2026, 03:48 UTC

1 62841C 25019N   26258.15881944 -.00082186  00000+0 -63805-3 0  2580
2 62841  43.0005 244.0755 0001414 262.4519 240.7487 15.70890098    11

Отслеживайте STARLINK-11531 в реальном времени с AllMySat

Download on the App Store